Lewiston, ID

4:41 AM PDT on September 25, 2016 (GMT -0700)
Lewiston-Nez Perce County

Weather History for KLWS - October, 2014

Change the Weather History Date:

Saturday, October 18, 2014

  Actual Average Record
Temperature  
Mean Temperature 62 °F 51 °F  
Max Temperature 73 °F 61 °F 78 °F (1944)
Min Temperature 51 °F 40 °F 23 °F (1946)
Degree Days  
Heating Degree Days 3 14  
Month to date heating degree days 99 193  
Since 1 July heating degree days 119 307  
Cooling Degree Days 0 0  
Month to date cooling degree days 14 1  
Year to date cooling degree days 1095 805  
Growing Degree Days 12 (Base 50)    
Moisture  
Dew Point 45 °F    
Average Humidity 61    
Maximum Humidity 83    
Minimum Humidity 38    
Precipitation  
Precipitation 0.00 in 0.04 in 0.49 in (1956)
Month to date precipitation 0.41 0.51  
Year to date precipitation 8.33 9.71  
Snow  
Snow 0.00 in 0.00 in 0.00 in (1995)
Month to date snowfall 0.0 0.0  
Since 1 July snowfall 0.0 0.0  
Since 1 September snowfall 0.0 0.0  
Snow Depth 0.00 in    
Sea Level Pressure  
Sea Level Pressure 29.99 in    
Wind  
Wind Speed 3 mph (ESE)    
Max Wind Speed 7 mph    
Max Gust Speed 8 mph    
Visibility 10 miles    
Events      
T = Trace of Precipitation, MM = Missing Value Source: NWS Daily Summary

Daily Weather History Graph

Daily Weather History Graph

Search for Another Location

Airport or City:

Trip Planner

Search our weather history database for the weather conditions in past years. The results will help you decide how hot, cold, wet, or windy it might be!

Date:

Astronomy

Oct. 18, 2014 Rise Set
Actual Time 7:09 AM PDT 5:55 PM PDT
Civil Twilight 6:39 AM PDT 6:26 PM PDT
Nautical Twilight 6:04 AM PDT 7:01 PM PDT
Astronomical Twilight 5:29 AM PDT 7:36 PM PDT
Moon 1:55 AM PDT (10/18) 3:33 PM PDT (10/18)
Length of Visible Light 11h 47m
Length of Day
10h 46m
Waning Crescent, 23% of the Moon is Illuminated
Oct 18
Waning Crescent
Oct 23
New
Oct 30
First Quarter
Nov 6
Full
Nov 14
Last Quarter

Hourly Weather History & Observations

Time (PDT) Temp. Dew Point Humidity Pressure Visibility Wind Dir Wind Speed Gust Speed Precip Events Conditions
12:56 AM 55.0 °F 44.1 °F 67% 29.94 in 10.0 mi Calm Calm - N/A   Scattered Clouds
1:56 AM 55.0 °F 44.1 °F 67% 29.95 in 10.0 mi West 3.5 mph - N/A   Mostly Cloudy
2:56 AM 53.1 °F 45.0 °F 74% 29.97 in 10.0 mi South 3.5 mph - N/A   Overcast
3:56 AM 53.1 °F 45.0 °F 74% 29.97 in 10.0 mi Calm Calm - N/A   Mostly Cloudy
4:56 AM 53.1 °F 45.0 °F 74% 29.99 in 10.0 mi Calm Calm - N/A   Partly Cloudy
5:56 AM 51.1 °F 45.0 °F 80% 30.00 in 10.0 mi SSE 3.5 mph - N/A   Overcast
6:56 AM 52.0 °F 46.0 °F 80% 30.01 in 10.0 mi ESE 3.5 mph - N/A   Overcast
7:56 AM 53.1 °F 46.9 °F 80% 30.03 in 10.0 mi East 3.5 mph - N/A   Overcast
8:56 AM 54.0 °F 46.0 °F 75% 30.05 in 10.0 mi ENE 4.6 mph - N/A   Mostly Cloudy
9:56 AM 55.9 °F 46.9 °F 72% 30.05 in 10.0 mi East 4.6 mph - N/A   Scattered Clouds
10:56 AM 59.0 °F 48.0 °F 67% 30.04 in 10.0 mi Variable 3.5 mph - N/A   Overcast
11:56 AM 60.1 °F 46.9 °F 62% 30.03 in 10.0 mi NE 4.6 mph - N/A   Mostly Cloudy
12:56 PM 66.0 °F 45.0 °F 47% 30.02 in 10.0 mi NNW 3.5 mph - N/A   Mostly Cloudy
1:56 PM 69.1 °F 45.0 °F 42% 29.99 in 10.0 mi East 4.6 mph - N/A   Overcast
2:56 PM 71.1 °F 44.1 °F 38% 29.99 in 10.0 mi Calm Calm - N/A   Clear
3:56 PM 72.0 °F 45.0 °F 38% 29.98 in 10.0 mi Variable 3.5 mph - N/A   Clear
4:56 PM 71.1 °F 45.0 °F 39% 29.96 in 10.0 mi North 3.5 mph - N/A   Clear
5:56 PM 68.0 °F 45.0 °F 43% 29.97 in 8.0 mi WNW 3.5 mph - N/A   Clear
6:56 PM 64.9 °F 46.0 °F 50% 29.98 in 10.0 mi South 3.5 mph - N/A   Clear
7:56 PM 59.0 °F 46.0 °F 62% 29.99 in 10.0 mi SSE 4.6 mph - N/A   Clear
8:56 PM 57.9 °F 45.0 °F 62% 30.00 in 10.0 mi South 4.6 mph - N/A   Clear
9:56 PM 55.0 °F 45.0 °F 69% 29.99 in 10.0 mi SE 4.6 mph - N/A   Clear
10:56 PM 55.0 °F 44.1 °F 67% 29.98 in 10.0 mi Calm Calm - N/A   Clear
11:56 PM 53.1 °F 44.1 °F 71% 29.97 in 10.0 mi ESE 4.6 mph - N/A   Clear